Regional Weather Roundup
Issued by NWS

Home | Current Version | Previous Version | Graphics & Text | Print | Product List | Glossary On
Versions: 1 2 3 4 5 6 7 8 9 10 11 12 13 14 15 16 17 18 19 20 21 22 23 24 25 26 27 28 29 30 31 32 33 34 35 36 37 38 39 40 41 42 43 44 45 46 47 48 49 50
000
ASUS45 KCYS 090210
RWRWY

WYOMING REGIONAL WEATHER ROUNDUP
NATIONAL WEATHER SERVICE CHEYENNE WY
700 PM MST MON FEB 08 2016

NOTE:  "FAIR" INDICATES FEW OR NO CLOUDS BELOW 12,000 FEET
WITH NO SIGNIFICANT WEATHER AND/OR OBSTRUCTIONS TO VISIBILITY.

WYZ001-090300-
YELLOWSTONE NATIONAL PARK

CITY           SKY/WX    TMP DP  RH WIND       PRES   REMARKS
LK YELLOWSTONE   N/A     24  18  77 CALM      30.56S
W YELLOWSTONE  NOT AVBL

$$
WYZ002>013-054>058-071-098>099-090300-
NORTHERN WYOMING

CITY           SKY/WX    TMP DP  RH WIND       PRES   REMARKS
JACKSON        CLEAR     18  16  93 CALM      30.57R
CODY           FAIR      37  19  48 E5        30.37R WCI  34
GREYBULL       FAIR      32  21  64 CALM      30.38S
WORLAND        FAIR      31  22  69 CALM      30.37F
SHERIDAN       FAIR      42  28  57 NW12      30.31R
BUFFALO        FAIR      44  27  51 NW8       30.31F
GILLETTE       FAIR      34  26  72 W8        30.28F WCI  27
HULETT         CLOUDY    39  25  56 SW3       30.28S
NEWCASTLE      FAIR      36  21  55 NW12      30.26F WCI  27

$$
WYZ014>020-022>026-101>103-090300-
CENTRAL WYOMING

CITY           SKY/WX    TMP DP  RH WIND       PRES   REMARKS
BIG PINEY      FAIR      30  23  75 NE13      30.50R WCI  20
PINEDALE       FAIR      32  25  74 W24G32    30.48R WCI  19
DUBOIS         FAIR      36  21  55 W28G37    30.43S WCI  23
LANDER         FAIR      28  19  69 SE5       30.38F WCI  23
RIVERTON       FAIR      26  17  68 W6        30.40F WCI  19
CASPER         FAIR      34  21  59 SW14      30.36F WCI  25
DOUGLAS        FAIR      36  26  67 NW14        N/A  WCI  27

$$
WYZ021-027>030-104>119-090300-
SOUTHERN WYOMING

CITY           SKY/WX    TMP DP  RH WIND       PRES   REMARKS
EVANSTON       FAIR      33  18  53 SW3       30.58S
KEMMERER       FAIR      32  27  80 S3        30.54R
FORT BRIDGER   CLEAR     34  25  69 W24       30.57F WCI  21
ROCK SPRINGS   FAIR      31  24  75 SW20      30.47F WCI  19
DIXON          FAIR      18  12  78 CALM      30.53S
RAWLINS        FAIR      30  19  63 W13       30.45F WCI  20
SARATOGA       FAIR      23  18  80 CALM      30.46S
LARAMIE        FAIR      32  20  61 NW13      30.37S WCI  22
CHEYENNE       FAIR      37  23  56 NW18G28   30.32S WCI  27
TORRINGTON     FAIR      39  26  59 NW10      30.30F WCI  32
PINE BLUFFS    FAIR      36  28  75 NW17      30.32R WCI  25

$$



USA.gov is the U.S. government's official web portal to all federal, state and local government web resources and services.